TimeEST,TemperatureF,Dew PointF,Humidity,Sea Level PressureIn,VisibilityMPH,Wind Direction,Wind SpeedMPH,Gust SpeedMPH,PrecipitationIn,Events,Conditions,WindDirDegrees,DateUTC
12:15 AM,47.1,46.2,97,30.30,10.0,Calm,Calm,-,N/A,,Clear,0,2012-12-04 05:15:00
12:35 AM,45.9,44.8,96,30.30,7.0,Calm,Calm,-,N/A,,Clear,0,2012-12-04 05:35:00
12:55 AM,44.4,43.5,97,30.30,7.0,Calm,Calm,-,N/A,,Clear,0,2012-12-04 05:55:00
1:15 AM,45.3,44.8,98,30.30,7.0,Calm,Calm,-,N/A,,Clear,0,2012-12-04 06:15:00
1:35 AM,44.6,43.9,97,30.30,7.0,Calm,Calm,-,N/A,,Clear,0,2012-12-04 06:35:00
1:55 AM,44.2,43.7,98,30.31,4.0,Calm,Calm,-,N/A,,Clear,0,2012-12-04 06:55:00
2:15 AM,43.2,42.4,97,30.31,1.5,Calm,Calm,-,N/A,,Scattered Clouds,0,2012-12-04 07:15:00
2:35 AM,43.0,42.6,99,30.30,3.0,Calm,Calm,-,N/A,,Clear,0,2012-12-04 07:35:00
2:55 AM,42.6,42.1,98,30.30,1.5,Calm,Calm,-,N/A,,Scattered Clouds,0,2012-12-04 07:55:00
3:15 AM,41.5,41.2,99,30.30,3.0,Calm,Calm,-,N/A,,Mostly Cloudy,0,2012-12-04 08:15:00
3:55 AM,41.9,41.5,99,30.30,0.2,Calm,Calm,-,N/A,Fog,Fog,0,2012-12-04 08:55:00
4:15 AM,40.6,40.3,99,30.30,0.2,Calm,Calm,-,N/A,Fog,Fog,0,2012-12-04 09:15:00
4:35 AM,39.9,39.6,99,30.30,0.5,Calm,Calm,-,N/A,Fog,Fog,0,2012-12-04 09:35:00
4:55 AM,38.7,38.3,99,30.30,0.2,Calm,Calm,-,N/A,Fog,Fog,0,2012-12-04 09:55:00
5:15 AM,39.0,38.8,99,30.30,0.2,Calm,Calm,-,N/A,Fog,Fog,0,2012-12-04 10:15:00
5:35 AM,38.5,38.1,99,30.30,0.2,Calm,Calm,-,N/A,Fog,Fog,0,2012-12-04 10:35:00
5:55 AM,39.0,38.5,98,30.30,0.5,Calm,Calm,-,N/A,Fog,Fog,0,2012-12-04 10:55:00
6:15 AM,38.7,38.3,99,30.30,0.5,Calm,Calm,-,N/A,Fog,Fog,0,2012-12-04 11:15:00
6:35 AM,38.1,37.8,99,30.30,0.2,Calm,Calm,-,N/A,Fog,Fog,0,2012-12-04 11:35:00
6:55 AM,38.8,38.5,99,30.31,0.2,Calm,Calm,-,N/A,Fog,Fog,0,2012-12-04 11:55:00
7:15 AM,38.5,38.1,99,30.31,0.2,Calm,Calm,-,N/A,Fog,Fog,0,2012-12-04 12:15:00
7:35 AM,38.3,38.1,99,30.32,0.2,Calm,Calm,-,N/A,Fog,Fog,0,2012-12-04 12:35:00
7:55 AM,38.7,38.3,99,30.32,0.2,Calm,Calm,-,N/A,Fog,Fog,0,2012-12-04 12:55:00
8:15 AM,39.7,39.4,99,30.32,0.2,Calm,Calm,-,N/A,Fog,Fog,0,2012-12-04 13:15:00
8:35 AM,40.3,39.9,99,30.33,0.2,Calm,Calm,-,N/A,Fog,Fog,0,2012-12-04 13:35:00
8:55 AM,41.9,41.5,99,30.33,0.2,Calm,Calm,-,N/A,Fog,Fog,0,2012-12-04 13:55:00
9:15 AM,45.3,45.0,99,30.33,0.2,Calm,Calm,-,N/A,Fog,Fog,0,2012-12-04 14:15:00
9:35 AM,48.2,47.7,98,30.34,5.0,Calm,Calm,-,N/A,,Scattered Clouds,0,2012-12-04 14:35:00
9:55 AM,51.1,50.5,98,30.34,10.0,Calm,Calm,-,N/A,,Clear,0,2012-12-04 14:55:00
10:15 AM,53.1,53.1,100,30.34,10.0,Calm,Calm,-,N/A,,Clear,0,2012-12-04 15:15:00
10:35 AM,57.7,53.6,86,30.32,10.0,WSW,3.5,-,N/A,,Clear,240,2012-12-04 15:35:00
10:55 AM,62.4,50.5,65,30.32,10.0,WSW,10.4,-,N/A,,Clear,250,2012-12-04 15:55:00
11:15 AM,64.6,49.6,58,30.31,10.0,WSW,16.1,21.9,N/A,,Clear,250,2012-12-04 16:15:00
11:35 AM,65.3,48.9,55,30.30,10.0,WSW,15.0,21.9,N/A,,Clear,250,2012-12-04 16:35:00
11:55 AM,64.8,49.3,57,30.29,10.0,WSW,15.0,-,N/A,,Scattered Clouds,250,2012-12-04 16:55:00
12:15 PM,65.7,49.5,56,30.28,10.0,WSW,17.3,26.5,N/A,,Scattered Clouds,240,2012-12-04 17:15:00
12:35 PM,65.5,49.5,56,30.27,10.0,SW,13.8,24.2,N/A,,Scattered Clouds,230,2012-12-04 17:35:00
12:55 PM,65.3,49.1,56,30.26,10.0,WSW,15.0,21.9,N/A,,Clear,240,2012-12-04 17:55:00
1:15 PM,65.7,49.5,56,30.25,10.0,WSW,16.1,23.0,N/A,,Clear,240,2012-12-04 18:15:00
1:35 PM,64.9,49.3,57,30.24,10.0,WSW,16.1,25.3,N/A,,Mostly Cloudy,250,2012-12-04 18:35:00
1:55 PM,65.3,49.3,56,30.24,10.0,WSW,16.1,19.6,N/A,,Scattered Clouds,240,2012-12-04 18:55:00
2:15 PM,65.5,49.5,56,30.23,10.0,WSW,15.0,23.0,N/A,,Scattered Clouds,240,2012-12-04 19:15:00
2:35 PM,66.9,49.8,54,30.23,10.0,SW,15.0,21.9,N/A,,Mostly Cloudy,230,2012-12-04 19:35:00
2:55 PM,66.2,49.1,54,30.23,10.0,WSW,11.5,18.4,N/A,,Scattered Clouds,250,2012-12-04 19:55:00
3:15 PM,64.2,48.6,57,30.23,10.0,WSW,12.7,17.3,N/A,,Scattered Clouds,250,2012-12-04 20:15:00
3:35 PM,65.5,48.2,54,30.23,10.0,WSW,12.7,19.6,N/A,,Mostly Cloudy,250,2012-12-04 20:35:00
3:55 PM,65.3,48.2,54,30.22,10.0,WSW,12.7,18.4,N/A,,Scattered Clouds,250,2012-12-04 20:55:00
4:15 PM,63.5,48.2,57,30.23,10.0,WSW,6.9,-,N/A,,Clear,250,2012-12-04 21:15:00
4:35 PM,63.0,48.2,59,30.23,10.0,WSW,4.6,-,N/A,,Scattered Clouds,240,2012-12-04 21:35:00
4:55 PM,63.5,48.4,58,30.23,10.0,WSW,3.5,-,N/A,,Overcast,250,2012-12-04 21:55:00
5:15 PM,62.8,48.4,59,30.22,10.0,WSW,4.6,-,N/A,,Overcast,240,2012-12-04 22:15:00
5:55 PM,62.1,48.4,61,30.23,10.0,WSW,4.6,-,N/A,,Overcast,240,2012-12-04 22:55:00
6:15 PM,61.7,48.4,62,30.23,10.0,WSW,4.6,-,N/A,,Overcast,240,2012-12-04 23:15:00
6:35 PM,61.2,48.2,62,30.22,10.0,Calm,Calm,-,N/A,,Overcast,0,2012-12-04 23:35:00
6:55 PM,59.9,47.8,64,30.22,10.0,West,4.6,-,N/A,,Mostly Cloudy,260,2012-12-04 23:55:00
7:15 PM,59.4,48.2,67,30.23,10.0,WSW,4.6,-,N/A,,Scattered Clouds,240,2012-12-05 00:15:00
7:35 PM,57.9,48.6,71,30.23,10.0,WSW,3.5,-,N/A,,Mostly Cloudy,240,2012-12-05 00:35:00
7:55 PM,57.6,48.4,71,30.23,10.0,SW,3.5,-,N/A,,Overcast,220,2012-12-05 00:55:00
8:15 PM,59.0,48.2,67,30.23,10.0,SW,4.6,-,N/A,,Mostly Cloudy,230,2012-12-05 01:15:00
8:35 PM,58.6,48.2,68,30.23,10.0,West,4.6,-,N/A,,Overcast,270,2012-12-05 01:35:00
8:55 PM,58.6,48.2,68,30.23,10.0,Calm,Calm,-,N/A,,Overcast,0,2012-12-05 01:55:00
9:15 PM,56.3,47.8,73,30.23,10.0,Calm,Calm,-,N/A,,Overcast,0,2012-12-05 02:15:00
9:35 PM,56.8,48.2,73,30.22,10.0,Calm,Calm,-,N/A,,Mostly Cloudy,0,2012-12-05 02:35:00
9:55 PM,55.4,47.8,76,30.21,10.0,Calm,Calm,-,N/A,,Scattered Clouds,0,2012-12-05 02:55:00
10:15 PM,55.0,47.8,77,30.21,10.0,Calm,Calm,-,N/A,,Scattered Clouds,0,2012-12-05 03:15:00
10:35 PM,54.5,47.7,78,30.20,10.0,Calm,Calm,-,N/A,,Clear,0,2012-12-05 03:35:00
10:55 PM,54.0,47.8,80,30.20,10.0,Calm,Calm,-,N/A,,Clear,0,2012-12-05 03:55:00
11:15 PM,52.5,46.9,81,30.20,10.0,Calm,Calm,-,N/A,,Clear,0,2012-12-05 04:15:00
11:35 PM,52.3,47.1,82,30.20,10.0,Calm,Calm,-,N/A,,Clear,0,2012-12-05 04:35:00
11:55 PM,52.9,47.7,82,30.19,10.0,SW,4.6,-,N/A,,Scattered Clouds,230,2012-12-05 04:55:00